Lapse_Rate
-0.7 -1.6 -0.3 -0.6 1.5 0.5 2.6 2.6 2.9 4.7 5.5 6.1 6.4 6.2 6.3 5.8 5.4 6.9 8.5 9.2 9.2 9.3 9.4 9.4 9.4 9.2 9.2
-0.5 0.1 -0.2 1.0 1.4 1.8 3.1 4.3 4.4 4.9 5.7 6.5 6.7 7.0 7.0 6.9 7.0 7.6 7.8 8.2 9.1 9.1 9.0 8.9 9.2 9.4 9.2
1.5 1.1 1.5 2.0 2.5 3.1 3.6 3.8 3.7 5.0 6.1 6.9 6.5 6.5 6.5 6.3 7.9 8.4 8.6 8.5 8.7 8.8 8.9 9.0 9.2 9.3 9.3
3.1 2.9 3.2 3.1 2.4 2.5 3.1 2.8 3.3 5.3 5.8 5.8 5.7 5.3 5.3 6.0 6.6 6.3 6.4 6.6 7.0 7.3 8.3 8.8 9.1 9.3 9.3
3.4 2.9 2.8 2.9 3.6 3.5 3.5 3.2 3.4 2.8 2.7 2.4 3.1 3.2 3.7 4.7 5.3 5.3 5.9 6.7 7.6 8.8 9.3 9.3 9.3 9.2 9.2
1.8 3.8 4.6 4.2 4.2 4.0 2.3 2.7 2.2 2.9 2.5 2.1 2.6 1.8 2.9 3.7 4.2 5.9 6.5 6.5 6.7 7.2 8.6 9.3 9.3 9.2 9.2
4.5 4.2 4.4 4.4 2.7 1.9 3.8 1.9 2.7 2.9 2.5 0.9 1.5 1.4 2.7 3.3 4.4 5.1 5.6 6.4 6.8 7.2 8.2 9.1 9.1 9.0 8.6
4.3 4.4 4.5 4.9 4.6 2.6 2.5 3.2 2.9 3.0 2.5 0.0 1.0 1.0 1.0 2.4 2.8 4.5 5.8 6.6 7.0 6.8 6.9 7.3 8.4 9.0 8.7
8.1 7.9 7.5 7.4 7.0 2.6 2.1 1.3 1.9 2.8 2.3 1.0 0.8 0.2 0.2 0.3 2.1 4.2 4.6 5.4 5.5 5.6 6.3 6.3 6.7 8.5 7.8
4.4 4.7 5.2 5.3 7.5 4.9 2.1 -0.8 -0.3 0.0 2.0 0.9 1.0 3.7 0.8 -1.0 0.0 2.4 2.5 3.2 4.5 4.6 4.8 5.2 5.4 5.8 5.4
3.8 3.7 4.0 3.9 4.4 4.8 4.1 -1.3 -0.7 4.1 4.9 4.6 1.8 4.3 5.6 4.3 0.9 -0.6 1.2 1.5 2.3 2.6 3.6 4.9 5.6 6.3 5.8
3.8 2.8 2.5 2.2 3.9 4.3 4.1 3.6 3.7 3.7 4.0 4.5 3.8 3.7 4.8 4.8 5.0 1.6 1.2 2.9 2.5 1.1 1.7 3.5 5.2 6.4 7.0
2.1 1.8 3.4 1.9 3.4 4.0 3.9 3.7 3.3 3.1 3.6 4.3 4.0 4.5 6.0 6.2 6.2 5.0 5.0 0.8 2.2 2.6 1.7 2.1 2.4 2.9 2.3
1.2 1.0 1.2 3.8 3.3 3.2 2.8 3.1 2.8 2.7 3.7 4.8 4.9 6.0 5.7 6.4 6.4 5.2 5.1 6.2 4.1 4.6 4.6 3.9 4.0 4.0 3.5
2.6 4.0 3.9 3.7 3.4 3.4 3.3 3.3 3.5 3.1 3.1 2.1 5.5 7.0 6.9 6.6 5.4 4.8 5.3 5.4 5.0 4.9 5.3 5.0 4.4 4.6 4.6
3.7 3.6 3.3 3.3 3.4 3.5 3.9 3.9 3.9 3.5 3.5 4.0 4.8 6.3 5.5 4.6 5.2 4.3 5.9 5.1 4.7 4.7 4.7 5.3 5.2 4.6 5.0
3.3 3.4 3.6 3.7 4.0 3.8 4.1 4.3 4.0 4.1 3.9 4.3 3.9 5.7 6.8 6.4 5.1 6.8 5.7 5.0 5.2 5.0 5.5 5.2 5.3 4.8 5.2
Wind_Speed
1 2 2 4 8 6 10 8 9 13 12 12 12 13 14 14 15 16 16 16 17 16 17 17 17 18 17
2 3 2 4 2 2 7 9 9 9 11 11 12 13 13 12 13 14 14 15 16 16 17 17 18 18 20
2 2 2 2 2 3 3 7 8 10 10 8 10 11 13 12 12 12 13 14 15 15 16 18 18 19 20
1 2 2 2 2 1 2 1 2 3 5 10 11 7 8 11 12 12 13 14 15 15 16 16 17 18 20
2 1 1 1 2 2 2 0 2 2 1 2 5 12 13 11 12 13 13 13 15 16 17 18 19 21 22
1 0 0 0 1 1 2 1 2 2 1 5 6 4 10 14 12 13 14 15 16 16 18 19 20 21 22
1 1 0 0 3 2 2 2 3 3 2 4 1 4 10 11 13 15 15 14 13 13 15 17 18 19 21
3 3 3 3 3 4 3 1 2 4 2 2 2 3 5 14 14 9 6 8 12 16 18 18 18 20 21
1 4 5 5 4 2 1 2 2 2 1 0 2 3 2 3 7 6 10 15 16 17 18 20 21 21 19
4 6 7 6 6 4 3 3 2 2 2 2 2 3 4 2 3 14 11 13 16 19 21 19 18 13 10
3 3 2 3 3 3 2 3 2 4 4 2 2 2 2 4 3 3 10 11 14 16 19 18 16 14 7
1 2 0 1 2 5 6 5 5 7 9 6 3 2 4 7 7 4 5 13 13 5 11 17 18 21 21
1 1 1 2 5 6 8 10 10 11 11 11 5 7 6 6 9 9 8 3 9 7 4 5 7 9 7
2 2 2 4 2 2 2 3 5 5 10 16 14 9 7 8 9 10 8 6 7 10 7 8 13 14 11
2 4 4 4 3 3 3 4 5 6 7 4 13 14 10 11 10 9 9 9 9 9 9 10 9 8 9
2 3 4 4 4 4 4 4 6 6 6 7 7 7 7 9 19 11 9 9 9 8 7 8 10 9 13
3 3 4 4 7 5 5 5 6 6 6 6 6 7 9 10 6 17 8 6 9 9 8 8 10 11 9
Wind_Direction
37 101 158 117 209 176 225 240 251 260 267 269 277 277 279 284 287 287 286 287 286 288 289 288 288 288 290
118 201 106 182 164 173 241 245 242 256 265 268 274 276 284 290 286 283 287 286 286 285 288 288 287 285 285
138 55 79 141 176 209 218 249 259 259 265 281 285 285 286 282 280 284 291 291 287 286 283 282 283 284 285
82 126 113 127 103 169 242 239 265 270 288 284 283 292 300 295 298 298 292 289 287 285 280 279 278 277 279
41 51 86 99 186 195 179 159 271 238 275 295 308 306 302 298 292 296 291 286 287 286 285 284 281 281 281
322 74 285 227 80 121 148 91 303 228 13 291 276 277 282 287 284 290 295 297 293 291 291 289 286 284 282
167 168 184 250 140 175 190 172 217 285 56 285 254 264 268 275 293 297 297 296 299 300 298 293 290 286 283
147 198 207 201 180 173 184 250 295 280 215 241 272 270 296 295 300 301 305 320 325 319 309 301 295 292 287
322 299 284 283 261 96 333 75 295 245 343 79 323 308 295 305 354 21 351 326 321 317 310 307 300 295 297
354 343 345 325 302 184 163 171 209 346 252 44 344 4 317 283 315 322 306 303 306 309 305 302 300 294 290
336 330 348 12 22 47 164 148 199 268 282 18 230 315 215 299 276 250 276 278 285 289 287 292 290 287 279
342 312 321 314 325 340 340 312 277 257 265 255 257 248 272 286 285 300 282 283 270 259 260 276 278 282 280
331 287 352 308 324 304 289 280 269 259 262 245 231 253 251 264 278 286 296 290 284 276 267 264 261 264 274
257 260 281 319 312 300 304 304 294 281 266 274 263 250 261 260 265 279 281 279 287 285 275 273 273 256 250
306 318 311 310 297 294 287 283 278 293 297 286 278 249 249 262 274 268 275 275 274 274 283 285 281 270 259
306 287 276 275 281 273 260 263 276 281 286 291 291 287 278 257 241 266 270 268 272 266 259 265 278 275 252
283 279 273 267 296 284 273 267 276 277 272 274 269 274 287 290 274 267 266 271 286 285 274 265 277 280 280